Simultaneous Nadir Overpasses (SNOs) Predictions

Prediction of SNOs between LANDSAT-8 and NPP Satellite Orbit:

Table of predicted SNOs for the next 14.0 days since TLE Epoch: 6/30/2017
Index Date (LANDSAT-8) Time (LANDSAT-8) Lat,Lon (LANDSAT-8) SZA (LANDSAT-8 ) Date (NPP) Time (NPP) Lat,Lon (NPP) SZA (NPP ) Distance(km) Time Diff (sec)
1 07/01/2017 06:58:11 -70.11,-108.10 133.01 07/01/2017 06:57:29 -70.10,-108.05 133.02 2.64 42
2 07/01/2017 07:47:38 70.01, 59.40 46.90 07/01/2017 07:48:14 70.02, 59.37 46.91 1.44 36
3 07/03/2017 22:25:02 70.70,-158.99 47.77 07/03/2017 22:23:53 70.77,-160.67 47.91 62.08 69
4 07/03/2017 23:14:41 -70.09, 7.75 132.81 07/03/2017 23:14:24 -70.11, 7.70 132.79 2.68 17
5 07/04/2017 00:04:08 69.99, 175.25 47.10 07/04/2017 00:05:08 69.99, 175.19 47.09 2.19 60
6 07/06/2017 14:41:41 70.18, -43.88 47.53 07/06/2017 14:40:36 70.16, -43.92 47.52 2.85 65
7 07/06/2017 15:31:11 -70.07, 123.60 132.57 07/06/2017 15:31:18 -70.07, 123.53 132.57 2.73 7
8 07/06/2017 16:20:45 69.58, -69.44 46.97 07/06/2017 16:21:55 69.58, -68.43 46.93 38.99 70
9 07/09/2017 06:58:10 70.15, 71.97 47.81 07/09/2017 06:57:29 70.13, 71.90 47.80 3.55 41
10 07/09/2017 07:47:41 -69.99,-120.63 132.34 07/09/2017 07:48:10 -69.99,-120.56 132.35 2.62 29
11 07/11/2017 22:25:01 -70.89, 21.30 131.14 07/11/2017 22:23:53 -70.94, 19.06 131.00 81.62 68
12 07/11/2017 23:14:41 70.07,-172.27 48.08 07/11/2017 23:14:22 70.05,-172.20 48.07 3.34 19
13 07/12/2017 00:04:11 -69.97, -4.78 132.01 07/12/2017 00:05:04 -69.95, -4.74 132.03 2.27 53
14 07/14/2017 14:41:44 -70.15, 136.08 131.45 07/14/2017 14:40:33 -70.18, 136.07 131.41 3.24 71
15 07/14/2017 15:31:11 70.04, -56.44 48.45 07/14/2017 15:31:16 70.02, -56.39 48.44 2.26 5
16 07/14/2017 16:20:43 -69.83, 110.90 131.75 07/14/2017 16:21:56 -69.82, 111.24 131.78 13.01 73




NCC Satellite Simultaneous Nadir Overpasses (SNOs) Prediction Service
